This is the latest recevied weather packets stored in our database for station/object ZP4MNB-13. If no packets are shown the sender has not sent any weather packets the latest 10 day(s).
| Time | Temp. | Humidity | Pressure | Rain* | Wind** | Luminosity | Snow |
|---|---|---|---|---|---|---|---|
| 1787671314 | 25° C | 87% | 1015.4 hPa | 0 mm | - | 210 W/m² | - |
| 1787671194 | 25° C | 91% | 1015.3 hPa | 0 mm | - | 456 W/m² | - |
| 1787670712 | 25° C | 91% | 1015.4 hPa | 0 mm | - | 218 W/m² | - |
| 1787670592 | 24.44° C | 91% | 1015.5 hPa | 0 mm | - | 212 W/m² | - |
| 1787670114 | 24.44° C | 93% | 1015.6 hPa | 0 mm | - | 163 W/m² | - |
| 1787669994 | 24.44° C | 94% | 1015.6 hPa | 0 mm | - | 186 W/m² | - |
| 1787669512 | 23.89° C | 92% | 1015.7 hPa | 0 mm | - | 134 W/m² | - |
| 1787669392 | 23.89° C | 93% | 1015.7 hPa | 0 mm | - | 154 W/m² | - |
| 1787668914 | 23.89° C | 93% | 1015.7 hPa | 0 mm | - | 150 W/m² | - |
| 1787668794 | 23.89° C | 93% | 1015.8 hPa | 0 mm | - | 163 W/m² | - |
| 1787668312 | 23.89° C | 95% | 1015.8 hPa | 0 mm | - | 184 W/m² | - |
| 1787668192 | 23.89° C | 95% | 1015.8 hPa | 0 mm | - | 221 W/m² | - |
| 1787667714 | 23.89° C | 96% | 1015.9 hPa | 0 mm | - | 199 W/m² | - |
| 1787667594 | 23.89° C | 98% | 1015.9 hPa | 0 mm | - | 207 W/m² | - |
| 1787667054 | 22.78° C | 98% | 1016.2 hPa | 0 mm | - | 140 W/m² | - |
| 1787666990 | 22.78° C | 98% | 1016.1 hPa | 0 mm | - | 549 W/m² | - |
| 1787666513 | 22.78° C | 98% | 1016.1 hPa | 0 mm | - | 148 W/m² | - |
| 1787666393 | 22.78° C | 98% | 633 hPa | 0 mm | - | 147 W/m² | - |
| 1787665854 | 22.22° C | 98% | 1016.2 hPa | 0 mm | - | 145 W/m² | - |
| 1787665790 | 22.22° C | 98% | 1016.3 hPa | 0 mm | - | 151 W/m² | - |
| 1787665313 | 22.22° C | 98% | 1016.8 hPa | 0 mm | - | 161 W/m² | - |
| 1787665193 | 22.22° C | 98% | 1016.3 hPa | 0 mm | - | 224 W/m² | - |
| 1787664654 | 22.22° C | 98% | 1016.4 hPa | 0 mm | - | 125 W/m² | - |
| 1787664590 | 22.22° C | 98% | 1016.5 hPa | 0 mm | - | 229 W/m² | - |
| 1787664113 | 21.67° C | 98% | 1016.5 hPa | 0 mm | - | 230 W/m² | - |
* Rain latest hour (hover to see other rain measurements)
** Current wind speed in m/s (hover to see current wind gust speed)